Notices

What's New in latest Release from April 7th, 2021:

- Updated Glossary, including Speed of Maximum Gust, and Total Hourly Precipitation

- Updated national and regional climate services offices contacts and prices information

- Addition of station inventory lists for 1981-2010, 1971-2000, and 1961-1990 Normals.

If you haven't already, please take our survey and provide feedback about our website: https://eccc.sondage-survey.ca/f/LanguageSelection.aspx?s=442ca660-fcf1-47c0-95a9-59707d6fd709

Hourly Data Report for September 19, 2018

TORONTO CITY
ONTARIO
Current Station Operator: ECCC - MSC

43°40'00.000" N
79°24'00.000" W
112.50 m
6158355
71508
XTO

Download Data

Hourly Data (September 2018)
Hourly Data Report for September 19, 2018
TIME
LST
Temp Definition
°C
Dew Point Definition
°C
Rel Hum Definition
%
Precip. Amount Definition
mm

Wind Dir Definition
10's deg

Wind Spd Definition
km/h
Visibility Definition
km
Stn Press Definition
kPa
Hmdx Definition


Wind Chill Definition


Weather Definition


00:00 16.8 12.2 74 0.0 LegendMM LegendMM   100.01     LegendNANA
01:00 16.8 12.1 74 0.0 LegendMM LegendMM   99.99     LegendNANA
02:00 17.1 12.3 73 0.0 LegendMM LegendMM   100.01     LegendNANA
03:00 17.2 12.4 73 0.0 LegendMM LegendMM   100.05     LegendNANA
04:00 16.4 12.3 76 0.0 LegendMM LegendMM   100.09     LegendNANA
05:00 15.7 12.1 79 0.0 LegendMM LegendMM   100.18     LegendNANA
06:00 15.5 12.1 80 0.0 LegendMM LegendMM   100.26     LegendNANA
07:00 15.4 11.7 79 0.0 LegendMM LegendMM   100.33     LegendNANA
08:00 15.9 11.1 73 0.0 LegendMM LegendMM   100.39     LegendNANA
09:00 17.0 11.1 68 0.0 LegendMM LegendMM   100.42     LegendNANA
10:00 17.8 10.5 62 0.0 LegendMM LegendMM   100.44     LegendNANA
11:00 18.8 10.8 60 0.0 LegendMM LegendMM   100.42     LegendNANA
12:00 19.3 11.9 62 0.0 LegendMM LegendMM   100.49     LegendNANA
13:00 18.8 11.5 62 0.0 LegendMM LegendMM   100.48     LegendNANA
14:00 19.9 12.1 61 0.0 LegendMM LegendMM   100.43     LegendNANA
15:00 19.5 11.6 60 0.0 LegendMM LegendMM   100.43     LegendNANA
16:00 19.7 12.5 63 0.0 LegendMM LegendMM   100.42     LegendNANA
17:00 18.8 12.2 65 0.0 LegendMM LegendMM   100.46     LegendNANA
18:00 18.5 12.4 68 0.0 LegendMM LegendMM   100.52     LegendNANA
19:00 18.0 12.7 71 0.0 LegendMM LegendMM   100.54     LegendNANA
20:00 17.8 12.8 73 0.0 LegendMM LegendMM   100.59     LegendNANA
21:00 18.0 12.9 72 0.0 LegendMM LegendMM   100.63     LegendNANA
22:00 18.2 13.1 72 0.0 LegendMM LegendMM   100.66     LegendNANA
23:00 18.1 11.9 67 0.0 LegendMM LegendMM   100.63     LegendNANA

Notes on Data Quality.

Legend

  • E = Estimated
  • M = Missing
  • NA = Not Available*
  • [empty] = Indicates an unobserved value
Date modified: